UCLSAT (42765 NORAD) Tracking and Keplerian Element Data

This shows tracking and keplerian element data for the satellite.

Feedback or suggestion? Click here.




ElementValue
Catalog42765
NameUCLSAT
Epoch Orbit8278
Epoch Day348.86895347
Epoch Year2018
RAAN45.615
Inclination97.3787
Eccentricity0.0012338
Argument of Perigee155.7746
Mean Anonmoly204.4073
Mean Motion15.22289606
Decay Rate1.049E-05
L11 42765U 17036A 18348.86895347 .00001049 00000-0 48506-4 0 9996
L22 42765 97.3787 45.6150 0012338 155.7746 204.4073 15.22289606 82786

Live tracking and technical data element details for UCLSAT (NORAD 42765). UCLSAT can be tracked NOW for your location showing map with azimuth and elevation plus other details from your city location.

Track the satellite on the map from your city or location and see movement details for azimuth, elevation, latitude, longitude, range, height, and movement on the map or in text.







IsCatalogInMostPopularTable: catalog: 42765, numindb: 138
Update: records affected: 1



GetName: 42765 UCLSAT

Hit Count: updated at: Sat, 15 Dec 2018 14:26:02 GMT